SCP
0 0 0 0 0 0 0 0 0 0 0 -0 -0 -0 -0 0 -0 -0 0 0 0 0 0 0 0 0 0 0 0 0 0 0 0 0 0 0 0 0 0 0 0 0 0 0 0 -0 -0 -0 -0 -0 -0 0 -0 0
0 0 0 0 0 0 0 0 0 0 0 -0 -0 -0 -0 -0 -0 -0 0 0 0 0 0 0 0 0 0 0 0 0 0 0 0 0 0 0 0 0 0 0 0 0 0 0 0 0 -0 -0 -0 0 0 0 -0 0
0 0 0 0 0 0 0 0 0 0 -0 -0 -0 -0 0 -0 -0 -0 0 0 0 0 0 0 0 0 0 0 0 0 0 0 0 0 0 0 0 0 0 0 0 0 0 0 0 0 0 -0 -0 0 -0 0 -0 0
0 0 0 0 0 0 0 0 0 0 -0 -0 -0 -0 -0 -0 -0 -0 0 0 0 0 0 0 0 0 0 0 0 0 0 0 0 0 0 0 0 0 0 0 0 0 0 0 0 0 0 0 0 0 0 -0 0 0
0 0 0 0 0 0 0 0 0 0 -0 -0 -0 0 -0 -0 -0 0 0 0 0 0 0 0 0 0 0 0 0 0 0 0 0 0 0 0 0 0 0 0 0 0 0 0 0 0 0 0 0 0 0 -0 -0 0
0 0 0 0 0 0 0 0 0 -0 -0 -0 -0 0 -0 -0 0 0 0 0 0 0 0 0 0 0 0 0 0 0 0 0 0 0 0 0 0 0 0 0 0 0 0 0 0 0 0 0 0 0 0 0 0 0
0 0 0 0 0 0 0 0 0 -0 -0 -0 -0 -0 -0 0 0 0 0 0 0 0 0 0 0 0 0 0 0 0 0 0 0 0 0 0 0 0 0 -0 0 0 0 0 0 0 0 0 0 0 0 0 0 -0
0 0 0 0 0 0 0 0 0 -0 -0 -0 0 -0 -0 0 0 0 0 0 0 0 0 0 0 0 0 0 0 0 0 0 0 0 0 0 0 0 0 0 0 0 0 0 0 0 0 0 -0 -0 0 0 0 0
0 0 0 0 0 0 0 0 0 -0 -0 -0 0 0 0 0 0 0 0 0 0 0 -0 -0 0 0 0 0 0 0 0 0 0 0 0 0 0 0 0 0 0 0 0 0 0 0 0 0 0 0 0 0 0 0
0 0 0 0 0 0 0 0 -0 -0 -0 -0 0 0 0 0 -0 0 0 0 0 -0 -0 -0 0 -0 0 0 0 0 0 -0 0 0 0 0 0 0 0 0 0 0 0 0 0 0 0 0 0 0 0 0 0 0
0 0 0 0 0 0 0 0 0 -0 0 0 0 0 0 0 -0 0 0 0 0 -0 -0 -0 -0 -0 -0 -0 -0 0 0 0 0 0 0 0 0 0 0 0 0 0 0 0 0 0 0 0 0 0 0 0 0 0
0 0 0 0 0 0 0 0 0 0 0 0 0 -0 0 0 0 0 0 0 0 0 0 0 -0 -0 0 0 0 0 0 0 -0 0 0 0 0 -0 -0 -0 -0 0 0 0 0 0 0 0 0 0 0 0 0 0
0 0 0 0 0 0 0 0 0 -0 -0 -0 0 0 0 0 0 0 0 0 0 0 0 0 0 0 0 0 0 0 0 0 0 0 0 0 -0 -0 -0 -0 -0 0 -0 -0 -0 0 0 0 0 0 0 0 0 0
0 0 0 0 0 0 0 0 0 0 0 0 0 0 0 0 0 0 0 0 -0 0 0 0 0 0 0 0 0 0 0 0 0 0 0 -0 -0 -0 -0 -0 -0 -0 0 0 0 0 0 0 0 0 0 0 0 0
0 0 0 0 0 0 0 0 0 0 0 0 0 0 0 0 -0 -0 0 0 0 0 0 0 0 0 0 0 0 0 0 0 0 0 0 -0 -0 0 0 -0 -0 -0 0 0 0 0 0 0 0 0 0 0 0 0
0 0 0 0 0 0 0 0 0 0 0 0 0 0 -0 -0 0 0 0 0 0 0 0 0 0 0 0 0 0 0 0 0 0 -0 -0 -0 0 0 0 0 0 0 0 0 0 0 0 0 0 0 0 0 0 0
0 0 0 0 0 0 0 0 0 0 0 0 0 0 0 -0 -0 0 0 0 0 0 0 0 0 0 0 0 0 0 0 0 0 0 0 0 0 0 0 0 0 0 0 0 0 0 0 0 0 0 0 0 0 0
0 0 0 0 0 0 0 0 0 0 0 0 0 0 -0 0 -0 0 0 0 0 0 0 0 0 0 0 0 0 0 0 0 0 0 0 0 0 0 -0 0 0 0 0 0 0 0 0 0 0 0 0 0 0 0
0 0 0 0 0 0 0 0 0 0 0 0 0 0 0 0 0 0 0 0 0 0 0 0 0 0 0 0 0 0 0 0 0 0 0 0 -0 -0 -0 -0 0 0 0 0 0 0 0 0 0 0 0 0 0 0
0 0 0 0 0 0 0 0 0 0 0 0 0 0 0 0 0 0 0 0 0 0 0 0 0 0 0 0 0 0 0 0 0 0 0 0 0 0 0 0 0 0 0 0 0 0 0 0 0 0 0 0 0 0
0 0 0 0 0 0 0 0 0 0 0 0 0 0 0 0 0 0 0 0 0 0 0 0 0 0 0 0 0 0 0 0 0 0 0 0 0 0 0 0 0 0 0 0 0 0 0 0 0 0 0 0 0 0
0 0 0 0 0 0 0 0 0 0 0 0 0 0 0 0 0 0 0 0 0 0 0 0 0 0 0 0 0 0 0 0 0 0 0 0 -0 0 0 0 0 0 0 0 0 0 0 0 0 0 0 0 0 0
0 0 0 0 0 0 0 0 0 0 0 0 0 0 0 0 0 0 0 0 0 0 0 0 0 0 0 0 0 0 0 0 0 0 0 0 0 0 0 0 0 0 0 0 0 0 0 0 0 0 0 0 0 0
0 0 0 0 0 0 0 0 0 0 0 0 0 0 0 0 0 0 0 0 0 0 0 0 0 0 0 0 0 0 0 0 0 0 0 0 0 0 0 0 0 0 0 0 0 0 0 0 0 0 0 0 0 0
0 0 0 0 0 0 0 0 0 0 0 0 0 0 0 0 0 0 0 0 0 0 0 0 0 0 0 0 0 0 0 0 0 0 0 0 0 0 0 0 0 0 0 0 0 0 0 0 0 0 0 0 0 0
0 0 0 0 0 0 0 0 0 0 0 0 0 0 0 0 0 0 0 0 0 0 0 0 0 0 0 0 0 0 0 0 0 0 0 0 0 0 0 0 0 0 0 0 0 0 0 0 0 0 0 0 0 0
0 0 0 0 0 0 0 0 0 0 0 0 0 0 0 0 0 0 0 0 0 0 0 0 0 0 0 0 0 0 0 0 0 0 0 0 0 0 0 0 0 0 0 0 0 0 0 0 0 0 0 0 0 0
0 0 0 0 0 0 0 0 0 0 0 0 0 0 0 0 0 0 0 0 0 0 0 0 0 0 0 0 0 0 0 0 0 0 0 0 0 0 0 0 0 0 0 0 0 0 0 0 0 0 0 0 0 0
0 0 0 0 0 0 0 0 0 0 0 0 0 0 0 0 0 0 0 0 0 0 0 0 0 0 0 0 0 0 0 0 0 0 0 0 0 0 0 0 0 0 0 0 0 0 0 0 0 0 0 0 0 0
0 0 0 0 0 0 0 0 0 0 0 0 0 0 0 0 0 0 0 0 0 0 0 0 0 0 0 0 0 0 0 0 0 0 0 0 0 0 0 0 0 0 0 0 0 0 0 0 0 0 0 0 0 0
0 0 0 0 0 0 0 0 0 0 0 0 0 0 0 0 0 0 0 0 0 0 0 0 0 0 0 0 0 0 0 0 0 0 0 0 0 0 0 0 0 0 0 0 0 0 0 0 0 0 0 0 0 0
0 0 0 0 0 0 0 0 0 0 0 0 0 0 0 0 0 0 0 0 0 0 0 0 0 0 0 0 0 -0 -0 -0 0 0 0 0 0 0 0 0 0 0 0 0 0 0 0 0 0 0 0 0 0 0
0 0 0 0 0 0 0 0 0 0 0 0 0 0 0 0 0 0 0 0 0 0 0 0 0 0 0 0 0 0 0 0 0 0 0 0 0 0 0 0 0 0 0 0 0 0 0 0 0 0 0 0 0 0
Wind_Speed_500mb
52 51 52 56 54 54 49 52 52 51 51 55 53 59 62 62 60 64 77 70 75 37 53 48 55 31 21 18 13 4 19 9 15 17 13 8 9 13 12 10 14 21 15 15 17 23 39 16 18 26 12 34 30 49
48 52 51 54 51 50 51 55 58 55 54 55 60 63 63 64 57 68 76 35 49 50 24 48 48 42 54 35 18 28 5 10 10 8 7 6 6 1 15 16 10 14 16 10 15 13 22 17 9 20 27 46 45 43
48 51 54 49 49 49 49 52 53 53 53 57 61 60 62 63 57 66 46 28 23 21 26 24 20 19 23 40 30 6 4 18 12 12 9 6 8 9 10 11 8 11 15 20 27 43 53 62 73 56 55 54 48 71
50 52 48 45 48 46 49 53 54 52 54 55 58 59 62 61 65 37 29 21 14 6 5 9 16 12 9 15 25 45 11 21 11 9 2 5 5 8 9 11 18 13 14 31 31 40 35 63 54 51 64 68 61 69
51 53 43 44 46 49 50 56 51 51 52 55 57 59 60 52 52 22 24 23 21 11 4 10 22 13 8 9 23 25 30 19 10 6 5 7 5 5 4 4 12 14 26 17 24 26 20 35 54 69 55 59 73 66
46 46 40 44 44 50 52 52 51 50 50 54 56 56 46 36 36 14 6 17 26 17 7 6 7 9 11 9 12 16 21 15 10 9 6 7 9 7 7 15 28 40 47 53 39 61 60 66 64 70 62 69 71 67
43 44 36 42 46 51 53 50 52 48 48 54 53 45 34 28 24 10 5 6 8 17 6 6 6 3 6 8 3 6 11 6 6 5 5 5 4 10 7 37 15 33 52 73 84 70 54 64 50 57 51 57 65 42
44 41 34 40 46 54 46 51 46 46 49 52 47 34 22 20 13 9 15 25 15 13 8 4 6 4 11 7 4 11 9 14 15 7 4 5 8 7 15 23 25 66 78 76 78 70 70 71 60 56 46 35 40 46
38 33 35 41 48 45 50 44 42 46 46 49 35 22 20 8 6 7 16 7 20 19 4 3 4 6 8 3 7 7 13 5 15 7 6 11 6 15 21 21 25 52 52 61 60 65 64 57 42 31 31 39 50 51
35 30 35 41 44 45 44 41 39 43 48 29 11 5 4 7 10 10 6 4 7 8 8 3 3 3 11 7 3 0 7 5 4 9 7 9 14 39 55 58 50 51 50 54 43 24 43 42 37 33 36 36 45 56
37 31 37 42 40 42 40 32 33 42 31 12 10 5 16 9 7 5 3 4 2 4 6 5 8 4 12 6 5 10 4 4 5 6 5 5 7 6 27 45 51 54 61 68 63 62 59 57 59 54 43 44 53 63
36 30 35 41 37 41 35 24 34 37 27 20 23 26 11 6 7 5 4 2 6 3 4 4 5 9 6 9 5 5 4 4 7 1 5 6 6 28 42 45 53 53 52 58 60 57 58 55 45 58 58 57 62 70
35 30 36 39 40 42 23 27 35 31 24 10 6 6 6 5 1 6 4 3 4 3 6 3 4 5 5 8 5 3 6 7 1 2 6 6 11 35 45 52 53 41 33 35 44 55 65 63 54 58 56 60 68 83
37 34 39 43 44 28 22 29 31 21 8 7 6 8 7 6 7 4 4 5 9 9 8 8 4 5 5 3 4 4 5 2 5 4 6 7 17 36 39 38 40 35 23 26 32 51 60 70 71 67 65 70 74 80
39 35 43 44 22 23 28 39 23 13 8 8 5 7 8 5 9 12 12 7 6 10 6 3 5 2 3 3 4 3 7 6 6 5 5 11 28 29 33 30 33 36 44 43 45 56 60 67 77 81 75 85 91 87
35 41 38 23 28 33 34 24 9 15 7 8 10 3 5 3 6 4 3 4 9 2 2 3 2 3 6 3 4 6 5 2 6 6 14 22 18 21 26 26 24 24 35 46 52 55 56 62 71 77 77 66 59 59
32 41 38 43 33 25 21 7 9 9 9 7 6 10 6 5 4 9 5 5 16 5 3 3 1 6 3 3 3 2 7 8 12 19 17 12 10 13 14 12 21 27 34 44 50 56 60 62 59 57 59 59 67 67
38 36 39 37 20 26 4 8 7 8 9 12 3 6 6 5 8 6 13 12 6 2 1 1 5 2 5 7 5 7 9 43 23 17 14 9 5 7 8 4 7 17 25 32 38 47 50 51 55 57 55 55 58 56
38 39 37 22 12 11 5 7 9 5 8 4 7 7 4 5 7 3 9 6 7 6 5 6 7 5 4 4 9 25 35 30 29 13 9 6 3 1 4 7 12 20 27 27 33 43 50 56 57 56 57 55 59 55
33 34 21 14 16 7 6 8 8 8 4 5 6 5 4 3 5 13 21 18 13 9 10 7 5 5 6 15 26 32 39 36 25 5 15 13 10 15 18 21 25 29 34 34 36 38 40 38 35 39 39 41 49 51
26 11 11 14 15 14 8 6 9 8 3 6 4 3 3 7 9 10 13 15 15 5 4 8 15 19 16 19 25 29 27 28 22 14 3 10 11 13 19 23 24 26 30 32 33 31 33 35 35 34 37 42 43 41
12 11 7 17 12 9 11 13 7 3 4 3 3 4 4 4 3 7 7 16 7 8 7 13 17 18 23 26 27 29 28 21 8 4 2 7 9 13 16 17 16 17 19 22 28 34 35 32 33 35 39 42 40 41
12 8 8 12 10 9 9 8 6 7 3 2 5 5 3 4 6 5 6 8 7 10 9 14 17 10 13 18 22 28 30 27 19 14 7 9 9 14 17 12 10 20 24 24 23 32 38 39 39 39 38 37 35 35
15 7 7 9 14 7 4 2 4 4 5 4 4 5 4 3 6 7 5 1 5 10 11 16 19 14 13 22 33 34 35 30 27 18 15 14 21 18 12 8 13 12 14 22 22 27 31 32 31 34 35 36 35 36
7 8 8 8 8 4 4 4 5 4 3 2 6 3 3 6 5 4 3 3 7 11 13 14 16 20 22 25 29 31 27 32 33 35 29 19 4 18 21 17 17 15 15 20 24 27 27 25 25 30 32 31 30 29
6 8 10 9 3 6 6 6 5 6 5 4 2 3 5 5 6 4 5 11 7 10 14 18 19 15 17 20 25 34 36 29 25 33 38 34 24 10 8 15 26 27 24 21 21 26 28 27 29 29 28 26 26 27
6 8 6 5 4 12 6 6 6 5 5 7 4 4 6 6 6 6 11 13 11 12 12 16 21 21 19 15 11 20 21 23 29 30 28 30 34 32 23 15 9 4 18 29 26 25 29 33 33 31 29 29 31 29
7 7 9 2 7 7 7 4 4 5 5 5 6 4 11 13 8 9 8 16 14 11 11 13 16 22 23 22 17 12 15 15 8 8 16 25 29 31 31 26 19 14 7 16 31 28 28 34 35 34 32 27 30 32
3 7 10 7 6 6 3 5 5 3 6 7 7 5 5 4 9 13 24 18 13 9 8 9 10 13 15 16 16 18 19 18 16 18 22 26 26 34 34 31 30 25 16 4 18 30 28 30 34 34 30 27 27 31
4 7 7 5 6 3 2 2 5 12 11 14 14 12 10 11 16 18 17 13 11 10 4 5 7 9 9 10 15 16 19 21 20 19 18 22 25 26 29 28 27 27 26 20 6 13 25 27 35 40 34 31 30 33
12 7 8 6 4 5 13 25 24 21 11 12 15 12 13 11 15 16 13 12 11 9 6 5 8 10 12 13 15 17 17 19 18 17 16 17 17 17 17 18 19 20 21 20 18 15 13 26 39 39 34 32 28 29
6 5 7 6 2 8 8 5 6 6 5 5 6 7 9 8 8 16 16 17 16 13 11 9 4 4 8 11 13 15 14 14 15 16 16 16 16 18 17 15 13 12 11 12 14 17 18 19 22 28 33 33 30 29
8 12 11 9 4 4 4 6 11 4 9 6 6 5 4 8 7 14 20 20 14 8 7 11 8 2 3 9 11 11 11 13 16 17 17 17 17 17 16 15 14 13 11 9 8 7 8 9 11 14 18 20 23 26
Wind_Direction_500mb
293 292 294 291 299 298 290 299 300 299 300 302 302 305 302 299 297 290 281 275 240 258 267 272 266 260 276 226 228 122 137 147 170 196 191 166 187 207 192 207 191 193 167 198 229 226 245 191 205 214 201 296 323 318
296 295 294 294 298 301 298 295 299 296 298 301 303 305 304 304 294 305 297 251 237 241 262 279 273 270 256 265 205 173 156 141 151 154 175 152 193 153 172 234 165 216 193 200 183 204 243 177 192 250 262 265 291 302
297 298 299 289 296 304 303 304 305 300 297 302 305 307 308 309 300 306 282 242 228 246 270 261 259 261 244 233 216 143 174 159 183 198 155 186 198 148 199 227 231 220 197 230 247 247 249 256 270 272 263 255 278 290
300 300 296 291 295 307 302 302 302 306 299 303 308 309 312 313 311 285 263 236 269 269 268 271 316 274 232 207 202 203 171 162 149 204 117 173 172 177 209 221 211 195 171 234 249 254 263 264 249 264 275 272 278 276
301 303 288 293 301 305 304 306 309 307 304 307 310 312 313 314 318 272 246 248 262 246 256 276 295 301 293 199 225 205 214 181 159 172 199 210 186 139 245 263 240 183 220 212 238 232 221 268 266 264 273 283 276 264
298 297 287 295 304 305 306 310 309 310 307 308 313 313 316 316 316 222 236 242 235 236 275 299 282 257 251 240 211 192 178 172 178 167 213 234 191 174 216 246 242 226 237 239 246 253 252 261 265 272 268 273 268 255
304 299 285 299 305 308 311 309 312 311 309 311 314 313 312 302 326 206 217 175 216 208 243 301 305 262 214 200 186 189 214 217 218 256 219 199 226 220 245 251 237 216 233 243 250 262 265 262 259 258 264 272 252 254
303 296 290 301 307 312 314 312 315 317 312 314 314 308 308 292 307 360 258 274 268 206 227 243 264 277 185 178 190 185 194 193 212 232 231 202 203 212 253 247 229 240 248 256 259 259 264 271 277 269 267 249 222 204
298 292 302 304 310 313 313 318 321 316 320 316 311 296 296 251 269 308 313 262 226 215 238 233 191 262 182 221 200 198 210 225 199 215 230 179 192 226 258 253 242 245 241 248 253 257 255 249 243 230 209 182 174 157
305 290 306 306 317 312 318 320 320 323 324 326 322 291 255 317 299 296 274 263 228 225 229 256 240 261 188 184 225 94 195 232 243 231 194 229 246 247 255 260 265 270 265 261 242 231 216 208 208 194 175 184 170 149
304 291 307 308 314 317 319 324 331 326 339 354 350 322 306 304 278 242 278 244 215 246 217 239 221 221 214 230 219 208 211 245 240 250 220 255 259 285 331 315 302 286 271 263 246 238 225 220 197 175 159 158 154 154
305 295 306 311 312 311 314 320 325 323 322 312 304 305 293 263 228 247 227 248 225 269 211 198 248 221 243 227 230 208 243 228 249 138 259 271 266 321 320 310 304 294 270 259 243 223 213 204 175 169 171 161 152 145
309 299 306 312 307 313 308 312 316 313 320 309 225 245 244 271 262 213 265 97 323 227 203 185 292 235 227 228 282 214 236 236 114 228 245 249 308 325 323 326 322 302 266 244 228 210 196 180 172 178 165 162 157 148
310 302 307 307 307 304 296 305 319 321 295 246 231 265 201 263 244 210 190 213 256 253 260 215 250 186 214 209 218 237 250 11 304 259 258 313 321 326 345 3 20 31 142 179 168 164 173 169 157 156 161 152 149 147
308 307 306 311 282 275 290 313 303 251 230 246 234 238 228 258 271 263 275 272 261 270 221 185 259 159 253 282 219 352 348 262 232 288 304 320 326 340 8 20 38 66 78 91 116 129 132 137 141 141 149 150 147 141
307 303 310 321 290 293 306 308 246 195 228 231 234 261 280 20 314 344 346 280 354 177 261 267 287 242 255 224 222 225 257 296 342 314 309 319 329 349 9 42 62 84 101 113 118 121 128 133 133 138 138 134 136 140
296 287 304 313 313 313 315 228 205 220 233 226 250 227 199 253 268 271 296 318 340 179 211 125 183 231 335 289 245 13 18 336 329 329 331 336 305 321 346 31 70 87 110 114 121 120 125 129 129 131 136 141 139 135
282 292 294 307 305 325 242 215 234 236 240 227 150 226 206 229 276 306 335 319 324 247 306 307 339 4 19 360 351 352 312 315 323 346 338 343 343 317 312 18 128 114 119 121 122 125 128 132 137 132 132 132 132 134
286 291 296 285 266 292 268 224 225 246 237 221 234 239 240 244 216 5 349 331 114 42 70 49 61 40 2 10 314 317 318 321 316 345 358 328 317 177 140 134 138 142 129 127 130 132 135 138 136 140 141 144 138 141
283 289 279 225 211 223 251 240 222 248 244 223 220 224 212 196 165 85 47 59 62 49 43 44 46 351 293 327 329 315 319 327 328 27 65 68 100 130 125 124 127 131 128 126 124 127 130 132 145 153 149 146 144 144
288 268 215 208 207 225 262 252 235 232 219 213 183 204 129 86 63 46 37 35 60 29 66 45 350 354 346 342 352 347 347 344 339 305 234 108 103 109 121 125 133 136 138 138 138 144 148 147 154 156 153 152 147 142
258 222 209 196 215 225 253 229 239 220 219 222 151 103 69 58 40 44 57 52 64 35 22 351 343 346 356 2 5 11 7 356 16 126 187 180 145 150 153 150 156 143 143 147 146 148 147 147 145 144 144 140 140 137
233 219 212 208 208 215 258 201 211 198 145 254 117 80 58 69 73 73 68 71 88 19 10 2 352 331 349 8 19 29 31 32 23 38 128 173 180 153 141 130 148 150 146 141 145 144 140 142 144 145 147 144 142 139
188 215 219 211 204 240 248 256 180 107 41 66 77 94 55 96 97 57 84 296 61 31 35 24 19 34 43 35 31 27 27 36 41 34 36 125 152 155 145 133 152 143 143 142 147 151 145 145 150 156 156 155 155 154
174 230 195 252 206 95 81 29 6 69 98 137 84 350 318 67 69 57 178 246 99 64 54 36 29 38 48 49 44 39 31 34 35 39 38 35 143 182 186 193 177 160 164 169 166 167 166 166 168 171 171 169 165 162
192 208 162 207 232 151 176 133 164 153 111 75 185 350 46 86 71 221 237 168 128 84 68 53 42 43 52 49 47 41 37 39 45 50 42 41 47 70 118 158 184 180 183 197 203 191 186 180 172 174 177 178 174 170
200 247 197 194 118 118 74 54 106 98 110 155 200 68 75 87 230 250 156 150 135 115 89 65 48 50 51 43 59 44 38 42 54 58 54 52 52 56 62 60 56 186 187 195 203 207 203 195 187 181 180 183 186 186
213 166 157 176 79 66 118 81 111 155 189 163 92 87 145 176 202 153 149 156 146 127 102 79 64 53 48 48 56 38 32 32 26 41 59 57 56 54 56 50 32 5 289 224 209 207 207 204 199 192 188 192 193 192
103 122 114 59 64 54 75 139 175 170 130 119 116 172 205 100 134 140 146 149 146 143 103 67 89 60 37 33 38 45 48 52 52 57 50 43 42 38 41 36 36 31 22 335 220 208 204 206 206 200 195 197 196 196
139 131 97 72 81 74 298 59 91 113 101 103 108 110 100 98 125 134 149 160 175 173 149 86 82 64 39 43 44 36 32 27 27 32 34 32 27 20 18 24 29 33 35 32 31 205 199 202 206 194 188 188 189 192
135 111 82 66 89 55 105 110 103 98 90 78 93 108 117 125 148 160 160 168 184 189 176 133 104 77 58 42 32 25 22 22 21 19 17 9 359 352 355 6 18 26 32 40 53 76 148 178 177 178 181 184 187 182
75 85 120 109 102 119 111 71 67 72 76 83 80 98 124 130 145 174 179 176 180 188 183 164 149 30 22 19 25 28 28 28 22 18 17 14 10 7 4 359 358 5 19 31 46 67 84 104 135 158 171 178 182 185
88 80 86 98 63 18 83 98 34 30 46 60 52 85 99 157 179 176 193 185 178 176 193 201 190 197 7 13 18 20 18 17 11 3 359 358 356 357 357 360 4 5 5 12 29 49 73 97 119 127 134 147 156 166
Wind_Speed_850mb
52 51 52 56 54 54 49 52 52 51 51 55 53 59 62 62 60 64 77 70 75 37 53 48 55 31 21 18 13 4 19 9 15 17 13 8 9 13 12 10 14 21 15 15 17 23 39 16 18 26 12 34 30 49
48 52 51 54 51 50 51 55 58 55 54 55 60 63 63 64 57 68 76 35 49 50 24 48 48 42 54 35 18 28 5 10 10 8 7 6 6 1 15 16 10 14 16 10 15 13 22 17 9 20 27 46 45 43
48 51 54 49 49 49 49 52 53 53 53 57 61 60 62 63 57 66 46 28 23 21 26 24 20 19 23 40 30 6 4 18 12 12 9 6 8 9 10 11 8 11 15 20 27 43 53 62 73 56 55 54 48 71
50 52 48 45 48 46 49 53 54 52 54 55 58 59 62 61 65 37 29 21 14 6 5 9 16 12 9 15 25 45 11 21 11 9 2 5 5 8 9 11 18 13 14 31 31 40 35 63 54 51 64 68 61 69
51 53 43 44 46 49 50 56 51 51 52 55 57 59 60 52 52 22 24 23 21 11 4 10 22 13 8 9 23 25 30 19 10 6 5 7 5 5 4 4 12 14 26 17 24 26 20 35 54 69 55 59 73 66
46 46 40 44 44 50 52 52 51 50 50 54 56 56 46 36 36 14 6 17 26 17 7 6 7 9 11 9 12 16 21 15 10 9 6 7 9 7 7 15 28 40 47 53 39 61 60 66 64 70 62 69 71 67
43 44 36 42 46 51 53 50 52 48 48 54 53 45 34 28 24 10 5 6 8 17 6 6 6 3 6 8 3 6 11 6 6 5 5 5 4 10 7 37 15 33 52 73 84 70 54 64 50 57 51 57 65 42
44 41 34 40 46 54 46 51 46 46 49 52 47 34 22 20 13 9 15 25 15 13 8 4 6 4 11 7 4 11 9 14 15 7 4 5 8 7 15 23 25 66 78 76 78 70 70 71 60 56 46 35 40 46
38 33 35 41 48 45 50 44 42 46 46 49 35 22 20 8 6 7 16 7 20 19 4 3 4 6 8 3 7 7 13 5 15 7 6 11 6 15 21 21 25 52 52 61 60 65 64 57 42 31 31 39 50 51
35 30 35 41 44 45 44 41 39 43 48 29 11 5 4 7 10 10 6 4 7 8 8 3 3 3 11 7 3 0 7 5 4 9 7 9 14 39 55 58 50 51 50 54 43 24 43 42 37 33 36 36 45 56
37 31 37 42 40 42 40 32 33 42 31 12 10 5 16 9 7 5 3 4 2 4 6 5 8 4 12 6 5 10 4 4 5 6 5 5 7 6 27 45 51 54 61 68 63 62 59 57 59 54 43 44 53 63
36 30 35 41 37 41 35 24 34 37 27 20 23 26 11 6 7 5 4 2 6 3 4 4 5 9 6 9 5 5 4 4 7 1 5 6 6 28 42 45 53 53 52 58 60 57 58 55 45 58 58 57 62 70
35 30 36 39 40 42 23 27 35 31 24 10 6 6 6 5 1 6 4 3 4 3 6 3 4 5 5 8 5 3 6 7 1 2 6 6 11 35 45 52 53 41 33 35 44 55 65 63 54 58 56 60 68 83
37 34 39 43 44 28 22 29 31 21 8 7 6 8 7 6 7 4 4 5 9 9 8 8 4 5 5 3 4 4 5 2 5 4 6 7 17 36 39 38 40 35 23 26 32 51 60 70 71 67 65 70 74 80
39 35 43 44 22 23 28 39 23 13 8 8 5 7 8 5 9 12 12 7 6 10 6 3 5 2 3 3 4 3 7 6 6 5 5 11 28 29 33 30 33 36 44 43 45 56 60 67 77 81 75 85 91 87
35 41 38 23 28 33 34 24 9 15 7 8 10 3 5 3 6 4 3 4 9 2 2 3 2 3 6 3 4 6 5 2 6 6 14 22 18 21 26 26 24 24 35 46 52 55 56 62 71 77 77 66 59 59
32 41 38 43 33 25 21 7 9 9 9 7 6 10 6 5 4 9 5 5 16 5 3 3 1 6 3 3 3 2 7 8 12 19 17 12 10 13 14 12 21 27 34 44 50 56 60 62 59 57 59 59 67 67
38 36 39 37 20 26 4 8 7 8 9 12 3 6 6 5 8 6 13 12 6 2 1 1 5 2 5 7 5 7 9 43 23 17 14 9 5 7 8 4 7 17 25 32 38 47 50 51 55 57 55 55 58 56
38 39 37 22 12 11 5 7 9 5 8 4 7 7 4 5 7 3 9 6 7 6 5 6 7 5 4 4 9 25 35 30 29 13 9 6 3 1 4 7 12 20 27 27 33 43 50 56 57 56 57 55 59 55
33 34 21 14 16 7 6 8 8 8 4 5 6 5 4 3 5 13 21 18 13 9 10 7 5 5 6 15 26 32 39 36 25 5 15 13 10 15 18 21 25 29 34 34 36 38 40 38 35 39 39 41 49 51
26 11 11 14 15 14 8 6 9 8 3 6 4 3 3 7 9 10 13 15 15 5 4 8 15 19 16 19 25 29 27 28 22 14 3 10 11 13 19 23 24 26 30 32 33 31 33 35 35 34 37 42 43 41
12 11 7 17 12 9 11 13 7 3 4 3 3 4 4 4 3 7 7 16 7 8 7 13 17 18 23 26 27 29 28 21 8 4 2 7 9 13 16 17 16 17 19 22 28 34 35 32 33 35 39 42 40 41
12 8 8 12 10 9 9 8 6 7 3 2 5 5 3 4 6 5 6 8 7 10 9 14 17 10 13 18 22 28 30 27 19 14 7 9 9 14 17 12 10 20 24 24 23 32 38 39 39 39 38 37 35 35
15 7 7 9 14 7 4 2 4 4 5 4 4 5 4 3 6 7 5 1 5 10 11 16 19 14 13 22 33 34 35 30 27 18 15 14 21 18 12 8 13 12 14 22 22 27 31 32 31 34 35 36 35 36
7 8 8 8 8 4 4 4 5 4 3 2 6 3 3 6 5 4 3 3 7 11 13 14 16 20 22 25 29 31 27 32 33 35 29 19 4 18 21 17 17 15 15 20 24 27 27 25 25 30 32 31 30 29
6 8 10 9 3 6 6 6 5 6 5 4 2 3 5 5 6 4 5 11 7 10 14 18 19 15 17 20 25 34 36 29 25 33 38 34 24 10 8 15 26 27 24 21 21 26 28 27 29 29 28 26 26 27
6 8 6 5 4 12 6 6 6 5 5 7 4 4 6 6 6 6 11 13 11 12 12 16 21 21 19 15 11 20 21 23 29 30 28 30 34 32 23 15 9 4 18 29 26 25 29 33 33 31 29 29 31 29
7 7 9 2 7 7 7 4 4 5 5 5 6 4 11 13 8 9 8 16 14 11 11 13 16 22 23 22 17 12 15 15 8 8 16 25 29 31 31 26 19 14 7 16 31 28 28 34 35 34 32 27 30 32
3 7 10 7 6 6 3 5 5 3 6 7 7 5 5 4 9 13 24 18 13 9 8 9 10 13 15 16 16 18 19 18 16 18 22 26 26 34 34 31 30 25 16 4 18 30 28 30 34 34 30 27 27 31
4 7 7 5 6 3 2 2 5 12 11 14 14 12 10 11 16 18 17 13 11 10 4 5 7 9 9 10 15 16 19 21 20 19 18 22 25 26 29 28 27 27 26 20 6 13 25 27 35 40 34 31 30 33
12 7 8 6 4 5 13 25 24 21 11 12 15 12 13 11 15 16 13 12 11 9 6 5 8 10 12 13 15 17 17 19 18 17 16 17 17 17 17 18 19 20 21 20 18 15 13 26 39 39 34 32 28 29
6 5 7 6 2 8 8 5 6 6 5 5 6 7 9 8 8 16 16 17 16 13 11 9 4 4 8 11 13 15 14 14 15 16 16 16 16 18 17 15 13 12 11 12 14 17 18 19 22 28 33 33 30 29
8 12 11 9 4 4 4 6 11 4 9 6 6 5 4 8 7 14 20 20 14 8 7 11 8 2 3 9 11 11 11 13 16 17 17 17 17 17 16 15 14 13 11 9 8 7 8 9 11 14 18 20 23 26
Wind_Direction_850mb
293 292 294 291 299 298 290 299 300 299 300 302 302 305 302 299 297 290 281 275 240 258 267 272 266 260 276 226 228 122 137 147 170 196 191 166 187 207 192 207 191 193 167 198 229 226 245 191 205 214 201 296 323 318
296 295 294 294 298 301 298 295 299 296 298 301 303 305 304 304 294 305 297 251 237 241 262 279 273 270 256 265 205 173 156 141 151 154 175 152 193 153 172 234 165 216 193 200 183 204 243 177 192 250 262 265 291 302
297 298 299 289 296 304 303 304 305 300 297 302 305 307 308 309 300 306 282 242 228 246 270 261 259 261 244 233 216 143 174 159 183 198 155 186 198 148 199 227 231 220 197 230 247 247 249 256 270 272 263 255 278 290
300 300 296 291 295 307 302 302 302 306 299 303 308 309 312 313 311 285 263 236 269 269 268 271 316 274 232 207 202 203 171 162 149 204 117 173 172 177 209 221 211 195 171 234 249 254 263 264 249 264 275 272 278 276
301 303 288 293 301 305 304 306 309 307 304 307 310 312 313 314 318 272 246 248 262 246 256 276 295 301 293 199 225 205 214 181 159 172 199 210 186 139 245 263 240 183 220 212 238 232 221 268 266 264 273 283 276 264
298 297 287 295 304 305 306 310 309 310 307 308 313 313 316 316 316 222 236 242 235 236 275 299 282 257 251 240 211 192 178 172 178 167 213 234 191 174 216 246 242 226 237 239 246 253 252 261 265 272 268 273 268 255
304 299 285 299 305 308 311 309 312 311 309 311 314 313 312 302 326 206 217 175 216 208 243 301 305 262 214 200 186 189 214 217 218 256 219 199 226 220 245 251 237 216 233 243 250 262 265 262 259 258 264 272 252 254
303 296 290 301 307 312 314 312 315 317 312 314 314 308 308 292 307 360 258 274 268 206 227 243 264 277 185 178 190 185 194 193 212 232 231 202 203 212 253 247 229 240 248 256 259 259 264 271 277 269 267 249 222 204
298 292 302 304 310 313 313 318 321 316 320 316 311 296 296 251 269 308 313 262 226 215 238 233 191 262 182 221 200 198 210 225 199 215 230 179 192 226 258 253 242 245 241 248 253 257 255 249 243 230 209 182 174 157
305 290 306 306 317 312 318 320 320 323 324 326 322 291 255 317 299 296 274 263 228 225 229 256 240 261 188 184 225 94 195 232 243 231 194 229 246 247 255 260 265 270 265 261 242 231 216 208 208 194 175 184 170 149
304 291 307 308 314 317 319 324 331 326 339 354 350 322 306 304 278 242 278 244 215 246 217 239 221 221 214 230 219 208 211 245 240 250 220 255 259 285 331 315 302 286 271 263 246 238 225 220 197 175 159 158 154 154
305 295 306 311 312 311 314 320 325 323 322 312 304 305 293 263 228 247 227 248 225 269 211 198 248 221 243 227 230 208 243 228 249 138 259 271 266 321 320 310 304 294 270 259 243 223 213 204 175 169 171 161 152 145
309 299 306 312 307 313 308 312 316 313 320 309 225 245 244 271 262 213 265 97 323 227 203 185 292 235 227 228 282 214 236 236 114 228 245 249 308 325 323 326 322 302 266 244 228 210 196 180 172 178 165 162 157 148
310 302 307 307 307 304 296 305 319 321 295 246 231 265 201 263 244 210 190 213 256 253 260 215 250 186 214 209 218 237 250 11 304 259 258 313 321 326 345 3 20 31 142 179 168 164 173 169 157 156 161 152 149 147
308 307 306 311 282 275 290 313 303 251 230 246 234 238 228 258 271 263 275 272 261 270 221 185 259 159 253 282 219 352 348 262 232 288 304 320 326 340 8 20 38 66 78 91 116 129 132 137 141 141 149 150 147 141
307 303 310 321 290 293 306 308 246 195 228 231 234 261 280 20 314 344 346 280 354 177 261 267 287 242 255 224 222 225 257 296 342 314 309 319 329 349 9 42 62 84 101 113 118 121 128 133 133 138 138 134 136 140
296 287 304 313 313 313 315 228 205 220 233 226 250 227 199 253 268 271 296 318 340 179 211 125 183 231 335 289 245 13 18 336 329 329 331 336 305 321 346 31 70 87 110 114 121 120 125 129 129 131 136 141 139 135
282 292 294 307 305 325 242 215 234 236 240 227 150 226 206 229 276 306 335 319 324 247 306 307 339 4 19 360 351 352 312 315 323 346 338 343 343 317 312 18 128 114 119 121 122 125 128 132 137 132 132 132 132 134
286 291 296 285 266 292 268 224 225 246 237 221 234 239 240 244 216 5 349 331 114 42 70 49 61 40 2 10 314 317 318 321 316 345 358 328 317 177 140 134 138 142 129 127 130 132 135 138 136 140 141 144 138 141
283 289 279 225 211 223 251 240 222 248 244 223 220 224 212 196 165 85 47 59 62 49 43 44 46 351 293 327 329 315 319 327 328 27 65 68 100 130 125 124 127 131 128 126 124 127 130 132 145 153 149 146 144 144
288 268 215 208 207 225 262 252 235 232 219 213 183 204 129 86 63 46 37 35 60 29 66 45 350 354 346 342 352 347 347 344 339 305 234 108 103 109 121 125 133 136 138 138 138 144 148 147 154 156 153 152 147 142
258 222 209 196 215 225 253 229 239 220 219 222 151 103 69 58 40 44 57 52 64 35 22 351 343 346 356 2 5 11 7 356 16 126 187 180 145 150 153 150 156 143 143 147 146 148 147 147 145 144 144 140 140 137
233 219 212 208 208 215 258 201 211 198 145 254 117 80 58 69 73 73 68 71 88 19 10 2 352 331 349 8 19 29 31 32 23 38 128 173 180 153 141 130 148 150 146 141 145 144 140 142 144 145 147 144 142 139
188 215 219 211 204 240 248 256 180 107 41 66 77 94 55 96 97 57 84 296 61 31 35 24 19 34 43 35 31 27 27 36 41 34 36 125 152 155 145 133 152 143 143 142 147 151 145 145 150 156 156 155 155 154
174 230 195 252 206 95 81 29 6 69 98 137 84 350 318 67 69 57 178 246 99 64 54 36 29 38 48 49 44 39 31 34 35 39 38 35 143 182 186 193 177 160 164 169 166 167 166 166 168 171 171 169 165 162
192 208 162 207 232 151 176 133 164 153 111 75 185 350 46 86 71 221 237 168 128 84 68 53 42 43 52 49 47 41 37 39 45 50 42 41 47 70 118 158 184 180 183 197 203 191 186 180 172 174 177 178 174 170
200 247 197 194 118 118 74 54 106 98 110 155 200 68 75 87 230 250 156 150 135 115 89 65 48 50 51 43 59 44 38 42 54 58 54 52 52 56 62 60 56 186 187 195 203 207 203 195 187 181 180 183 186 186
213 166 157 176 79 66 118 81 111 155 189 163 92 87 145 176 202 153 149 156 146 127 102 79 64 53 48 48 56 38 32 32 26 41 59 57 56 54 56 50 32 5 289 224 209 207 207 204 199 192 188 192 193 192
103 122 114 59 64 54 75 139 175 170 130 119 116 172 205 100 134 140 146 149 146 143 103 67 89 60 37 33 38 45 48 52 52 57 50 43 42 38 41 36 36 31 22 335 220 208 204 206 206 200 195 197 196 196
139 131 97 72 81 74 298 59 91 113 101 103 108 110 100 98 125 134 149 160 175 173 149 86 82 64 39 43 44 36 32 27 27 32 34 32 27 20 18 24 29 33 35 32 31 205 199 202 206 194 188 188 189 192
135 111 82 66 89 55 105 110 103 98 90 78 93 108 117 125 148 160 160 168 184 189 176 133 104 77 58 42 32 25 22 22 21 19 17 9 359 352 355 6 18 26 32 40 53 76 148 178 177 178 181 184 187 182
75 85 120 109 102 119 111 71 67 72 76 83 80 98 124 130 145 174 179 176 180 188 183 164 149 30 22 19 25 28 28 28 22 18 17 14 10 7 4 359 358 5 19 31 46 67 84 104 135 158 171 178 182 185
88 80 86 98 63 18 83 98 34 30 46 60 52 85 99 157 179 176 193 185 178 176 193 201 190 197 7 13 18 20 18 17 11 3 359 358 356 357 357 360 4 5 5 12 29 49 73 97 119 127 134 147 156 166